DW2762 Weather Reports


time (UTC)temp
C
wind
direction
speed
KPH
gust
KPH
rain 1hr
cm
rain 24hr
cm
rain mn
cm
humidity
%
barometer
mb
20260505160112 25 142 6.4 20.9 0.00 0.00 0.00 40 1005.1
20260505153112 25 281 3.2 19.3 0.00 0.00 0.00 35 1005.4
20260505150111 25 188 8.0 22.5 0.00 0.00 0.00 34 1005.6
20260505140111 25 149 4.8 14.5 0.00 0.00 0.00 37 1006.4
20260505130110 25 241 4.8 20.9 0.00 0.00 0.00 42 1007.2
20260505124610 25 169 9.7 19.3 0.00 0.00 0.00 45 1007.7
20260505123110 23 142 11.3 19.3 0.00 0.00 0.00 44 1007.9
20260505121610 23 171 12.9 25.7 0.00 0.00 0.00 45 1008.2
20260505114610 23 145 9.7 17.7 0.00 0.00 0.00 46 1008.2
20260505113110 23 114 6.4 25.7 0.00 0.00 0.00 47 1008.4
20260505111610 22 136 9.7 19.3 0.00 0.00 0.00 47 1008.3
20260505110111 22 141 12.9 25.7 0.00 0.00 0.00 47 1008.5
20260505101610 22 82 3.2 14.5 0.00 0.00 0.00 49 1008.9
20260505100110 21 88 3.2 12.9 0.00 0.00 0.00 52 1009.0
20260505094609 20 194 6.4 14.5 0.00 0.00 0.00 54 1009.1
20260505093109 20 129 8.0 14.5 0.00 0.00 0.00 54 1009.2
20260505091609 19 164 8.0 14.5 0.00 0.00 0.00 54 1009.4
20260505083109 18 140 6.4 12.9 0.00 0.00 0.00 57 1009.8
20260505081611 17 167 4.8 11.3 0.00 0.00 0.00 57 1009.9
20260505080109 17 146 6.4 12.9 0.00 0.00 0.00 55 1009.8
20260505074609 16 156 3.2 9.7 0.00 0.00 0.00 56 1009.9
20260505071609 16 156 3.2 6.4 0.00 0.00 0.00 58 1009.9
20260505070109 15 164 3.2 8.0 0.00 0.00 0.00 60 1010.1
20260505064609 15 167 3.2 12.9 0.00 0.00 0.00 57 1010.2
20260505063108 15 158 6.4 14.5 0.00 0.00 0.00 56 1010.2
20260505061608 15 115 3.2 8.0 0.00 0.00 0.00 57 1010.3
20260505060110 15 84 3.2 11.3 0.00 0.00 0.00 56 1010.2
20260505054609 15 73 8.0 14.5 0.00 0.00 0.00 55 1010.0
20260505053108 14 69 8.0 12.9 0.00 0.00 0.00 56 1010.0
20260505051608 13 105 8.0 12.9 0.00 0.00 0.00 58 1009.9
20260505050108 11 76 3.2 4.8 0.00 0.00 0.00 63 1010.1
20260505041613 10 34 4.8 12.9 0.00 0.00 0.00 66 1010.0
20260505034613 10 337 3.2 6.4 0.00 0.00 0.00 67 1010.1
20260505033113 10 331 1.6 4.8 0.00 0.00 0.00 67 1010.1
20260505031612 10 331 0.0 0.0 0.00 0.00 0.00 66 1010.0
20260505030112 10 330 1.6 3.2 0.00 0.00 0.00 66 1010.1
20260505024612 11 329 1.6 4.8 0.00 0.00 0.00 65 1010.4
20260505020112 12 21 1.6 4.8 0.00 0.00 0.00 61 1010.7
20260505014612 12 31 1.6 8.0 0.00 0.00 0.00 62 1010.7
20260505011611 12 66 1.6 3.2 0.00 0.00 0.00 61 1010.8
20260505010111 12 64 3.2 6.4 0.00 0.00 0.00 60 1010.9
20260505004611 13 20 3.2 4.8 0.00 0.00 0.00 60 1011.0
20260505003111 13 57 0.0 4.8 0.00 0.00 0.00 58 1011.1
20260505001611 13 32 3.2 6.4 0.00 0.00 0.00 58 1011.3
20260505000111 13 22 3.2 11.3 0.00 0.00 0.00 59 1011.4
20260504233111 13 343 3.2 4.8 0.00 0.00 0.00 60 1011.8
20260504231611 13 347 0.0 3.2 0.00 0.00 0.00 59 1011.7
20260504230111 13 38 4.8 8.0 0.00 0.00 0.00 59 1011.8
20260504224611 13 306 0.0 4.8 0.00 0.00 0.00 59 1012.0
20260504223110 13 309 3.2 4.8 0.00 0.00 0.00 60 1012.1
20260504221611 14 305 3.2 4.8 0.00 0.00 0.00 58 1012.2
20260504214610 15 312 3.2 4.8 0.00 0.00 0.00 55 1012.4
20260504213110 16 329 1.6 4.8 0.00 0.00 0.00 50 1012.6
20260504211612 17 117 4.8 12.9 0.00 0.00 0.00 49 1012.6
20260504210110 16 74 3.2 12.9 0.00 0.00 0.00 50 1012.5
20260504204610 16 64 1.6 9.7 0.00 0.00 0.00 53 1012.7
20260504203109 17 28 0.0 4.8 0.00 0.00 0.00 52 1012.8
20260504201610 17 65 3.2 8.0 0.00 0.00 0.00 49 1012.8
20260504200109 17 88 3.2 8.0 0.00 0.00 0.00 49 1012.9
20260504194610 17 81 6.4 12.9 0.00 0.00 0.00 50 1012.8
20260504191609 17 95 0.0 3.2 0.00 0.00 0.00 51 1012.9
20260504190109 17 74 0.0 0.0 0.00 0.00 0.00 51 1012.9
20260504184609 18 101 0.0 3.2 0.00 0.00 0.00 50 1012.7
20260504181609 19 143 0.0 3.2 0.00 0.00 0.00 48 1012.7
20260504180110 20 144 0.0 0.0 0.00 0.00 0.00 48 1012.5
20260504174609 21 166 0.0 1.6 0.00 0.00 0.00 46 1012.6
20260504173108 21 155 1.6 9.7 0.00 0.00 0.00 46 1012.6
20260504171609 21 213 1.6 6.4 0.00 0.00 0.00 45 1012.5
20260504170108 22 96 4.8 9.7 0.00 0.00 0.00 44 1012.4